Regional Weather Roundup
Issued by NWS Cleveland, OH

Home | Current Version | Previous Version | Graphics & Text | Print | Product List | Glossary On
Versions: 1 2 3 4 5 6 7 8 9 10 11 12 13 14 15 16 17 18 19 20 21 22 23 24 25 26 27 28 29 30 31 32 33 34 35 36 37 38 39 40 41 42 43 44 45 46 47 48 49 50
000
ASUS41 KCLE 240302
RWRCLE
OHIO REGIONAL WEATHER ROUNDUP
NATIONAL WEATHER SERVICE CLEVELAND, OH
1000 PM EST MON JAN 23 2017

NOTE: "FAIR" INDICATES FEW OR NO CLOUDS BELOW 12,000 FEET WITH NO
SIGNIFICANT WEATHER AND/OR OBSTRUCTIONS TO VISIBILITY.

OHZ001>008-015>018-024>027-034-035-043-044-240400-
   NORTHWEST OHIO

CITY           SKY/WX    TMP DP  RH WIND       PRES   REMARKS
DEFIANCE       LGT RAIN  42  40  92 N7        29.71R FOG
FINDLAY        CLOUDY    42  38  85 N12       29.66S
TOLEDO EXPRESS LGT RAIN  42  42 100 N6        29.69F FOG
TOLEDO EXEC    FOG       41  41 100 NE7       29.69F VSB 3/4
LIMA           LGT RAIN  40  40 100 N10       29.67S
$$

OHZ009>014-019>023-028>033-038-089-240400-
   NORTHEAST OHIO

CITY           SKY/WX    TMP DP  RH WIND       PRES   REMARKS
CLE-HOPKINS    CLOUDY    40  37  89 N7        29.66S
CLE-LAKEFRONT  CLOUDY    38  36  92 NE10      29.64S
CUY CO. ARPT   CLOUDY    41  39  93 E9        29.64S
LORAIN-ELYRIA  CLOUDY    37  35  92 NE9       29.65R FOG
ASHTABULA      CLOUDY    38  37  97 VRB6      29.64S
AKRON-CANTON   LGT RAIN  41  38  89 E3        29.62S FOG
WOOSTER        CLOUDY    40  39  97 SE7       29.63R FOG
MANSFIELD      CLOUDY    40  40 100 CALM      29.63R FOG
YOUNGSTOWN     LGT RAIN  40  37  89 SE6       29.63R
$$

OHZ042-051>053-060>062-070>072-077>081-240400-
  SOUTHWEST OHIO

CITY           SKY/WX    TMP DP  RH WIND       PRES   REMARKS
CINC-COVINGTON CLOUDY    44  42  93 NW15      29.68R
CINC-LUNKEN    LGT RAIN  46  45  96 N7        29.68R
HAMILTON       CLOUDY    46  44  93 NW12      29.69R
DAYTON         LGT RAIN  40  39  97 N12       29.66S FOG
WRIGHT-PAT AFB DRIZZLE   41  41 100 N7        29.65R FOG
DAYTON GENERAL LGT RAIN  43  41  93 N12       29.64F FOG
WILMINGTON     LGT RAIN  42  41  96 NW13      29.63R FOG
$$

OHZ036-037-039>041-045>050-054>059-063>069-073>076-082>088-240400-
  CENTRAL AND SOUTHEAST OHIO

CITY           SKY/WX    TMP DP  RH WIND       PRES   REMARKS
COLUMBUS       LGT RAIN  44  42  93 NE7       29.61S FOG
OSU AIRPORT    LGT RAIN  42  42 100 N7        29.61R FOG
BOLTON FIELD   NOT AVBL
RICKENBACK AFB DRIZZLE   42  43 100 N3        29.61S
NEWARK         CLOUDY    43  40  89 NE5       29.61R
MARION         CLOUDY    39  37  92 N10       29.64R
LANCASTER      CLOUDY    44  40  85 E7        29.62R
ZANESVILLE     CLOUDY    41  36  82 E8        29.61R
NEW PHILLY     NOT AVBL
$$




USA.gov is the U.S. government's official web portal to all federal, state and local government web resources and services.